Time,TemperatureF,DewpointF,PressureIn,WindDirection,WindDirectionDegrees,WindSpeedMPH,WindSpeedGustMPH,Humidity,HourlyPrecipIn,Conditions,Clouds,dailyrainin,SoftwareType,DateUTC
2013-05-12 00:01:00,37.9,33.3,30.04,WSW,252,5.0,8.0,83,0.00,,,0.02,meteohub,2013-05-12 05:01:00,
2013-05-12 00:06:00,38.1,33.4,30.04,West,273,2.0,7.0,83,0.00,,,0.00,meteohub,2013-05-12 05:06:00,
2013-05-12 00:11:00,38.1,33.4,30.04,West,273,3.0,7.0,83,0.00,,,0.00,meteohub,2013-05-12 05:11:00,
2013-05-12 00:16:00,38.1,33.4,30.05,West,276,1.0,8.0,83,0.00,,,0.00,meteohub,2013-05-12 05:16:00,
2013-05-12 00:21:00,37.9,33.3,30.05,West,275,1.0,8.0,83,0.00,,,0.00,meteohub,2013-05-12 05:21:00,
2013-05-12 00:27:00,38.1,33.4,30.05,West,262,3.0,8.0,83,0.00,,,0.00,meteohub,2013-05-12 05:27:00,
2013-05-12 00:32:00,37.9,32.9,30.05,NW,314,0.0,6.0,82,0.00,,,0.00,meteohub,2013-05-12 05:32:00,
2013-05-12 00:37:00,37.8,32.7,30.05,NW,312,3.0,7.0,82,0.00,,,0.00,meteohub,2013-05-12 05:37:00,
2013-05-12 00:42:00,37.8,32.7,30.05,West,267,2.0,7.0,82,0.00,,,0.00,meteohub,2013-05-12 05:42:00,
2013-05-12 00:47:00,37.8,32.7,30.05,West,267,0.0,6.0,82,0.00,,,0.00,meteohub,2013-05-12 05:47:00,
2013-05-12 00:52:00,37.6,32.5,30.04,West,267,0.0,6.0,82,0.00,,,0.00,meteohub,2013-05-12 05:52:00,
2013-05-12 00:57:00,37.8,32.7,30.05,West,267,3.0,5.0,82,0.00,,,0.00,meteohub,2013-05-12 05:57:00,
2013-05-12 01:02:00,37.8,32.7,30.05,WSW,254,3.0,5.0,82,0.00,,,0.00,meteohub,2013-05-12 06:02:00,
2013-05-12 01:07:00,37.6,32.5,30.05,West,263,2.0,7.0,82,0.00,,,0.00,meteohub,2013-05-12 06:07:00,
2013-05-12 01:12:00,37.6,32.4,30.04,West,281,6.0,7.0,81,0.00,,,0.00,meteohub,2013-05-12 06:12:00,
2013-05-12 01:17:00,37.4,32.2,30.04,NW,315,2.0,8.0,81,0.00,,,0.00,meteohub,2013-05-12 06:17:00,
2013-05-12 01:22:00,37.2,31.6,30.04,WSW,245,1.0,8.0,80,0.00,,,0.00,meteohub,2013-05-12 06:22:00,
2013-05-12 01:27:00,37.0,31.8,30.05,NW,304,3.0,8.0,81,0.00,,,0.00,meteohub,2013-05-12 06:27:00,
2013-05-12 01:32:00,37.0,31.8,30.05,WNW,295,1.0,6.0,81,0.00,,,0.00,meteohub,2013-05-12 06:32:00,
2013-05-12 01:37:00,36.9,31.3,30.05,WNW,296,0.0,6.0,80,0.00,,,0.00,meteohub,2013-05-12 06:37:00,
2013-05-12 01:42:00,36.9,31.3,30.05,WNW,296,0.0,6.0,80,0.00,,,0.00,meteohub,2013-05-12 06:42:00,
2013-05-12 01:47:00,36.7,31.1,30.05,WNW,297,1.0,5.0,80,0.00,,,0.00,meteohub,2013-05-12 06:47:00,
2013-05-12 01:52:00,36.5,30.9,30.05,WNW,297,0.0,5.0,80,0.00,,,0.00,meteohub,2013-05-12 06:52:00,
2013-05-12 01:57:00,36.3,31.1,30.05,WNW,297,0.0,5.0,81,0.00,,,0.00,meteohub,2013-05-12 06:57:00,
2013-05-12 02:02:00,36.3,31.1,30.05,WNW,297,0.0,3.0,81,0.00,,,0.00,meteohub,2013-05-12 07:02:00,
2013-05-12 02:07:00,36.5,31.5,30.05,WNW,297,1.0,3.0,82,0.00,,,0.00,meteohub,2013-05-12 07:07:00,
2013-05-12 02:12:00,36.7,31.5,30.05,WNW,295,1.0,3.0,81,0.00,,,0.00,meteohub,2013-05-12 07:12:00,
2013-05-12 02:17:00,36.7,31.1,30.05,WNW,282,4.0,7.0,80,0.00,,,0.00,meteohub,2013-05-12 07:17:00,
2013-05-12 02:22:00,36.7,31.1,30.05,West,270,0.0,10.0,80,0.00,,,0.00,meteohub,2013-05-12 07:22:00,
2013-05-12 02:27:00,36.3,30.7,30.05,West,275,1.0,10.0,80,0.00,,,0.00,meteohub,2013-05-12 07:27:00,
2013-05-12 02:32:00,36.1,30.6,30.06,NW,306,0.0,10.0,80,0.00,,,0.00,meteohub,2013-05-12 07:32:00,
2013-05-12 02:37:00,36.1,30.2,30.06,WNW,290,2.0,9.0,79,0.00,,,0.00,meteohub,2013-05-12 07:37:00,
2013-05-12 02:42:00,36.1,30.0,30.06,NW,317,7.0,9.0,78,0.00,,,0.00,meteohub,2013-05-12 07:42:00,
2013-05-12 02:47:00,36.1,30.0,30.05,NW,318,2.0,9.0,78,0.00,,,0.00,meteohub,2013-05-12 07:47:00,
2013-05-12 02:52:00,36.1,29.7,30.05,NW,315,4.0,9.0,77,0.00,,,0.00,meteohub,2013-05-12 07:52:00,
2013-05-12 02:57:00,36.3,29.8,30.06,WNW,294,3.0,10.0,77,0.00,,,0.00,meteohub,2013-05-12 07:57:00,
2013-05-12 03:02:00,36.3,29.5,30.06,WNW,289,3.0,10.0,76,0.00,,,0.00,meteohub,2013-05-12 08:02:00,
2013-05-12 03:07:00,36.3,29.1,30.06,SW,223,10.0,10.0,75,0.00,,,0.00,meteohub,2013-05-12 08:07:00,
2013-05-12 03:12:00,36.3,28.8,30.06,SW,234,2.0,11.0,74,0.00,,,0.00,meteohub,2013-05-12 08:12:00,
2013-05-12 03:17:00,36.3,28.8,30.06,NW,323,7.0,11.0,74,0.00,,,0.00,meteohub,2013-05-12 08:17:00,
2013-05-12 03:22:00,36.3,28.8,30.06,WNW,288,5.0,13.0,74,0.00,,,0.00,meteohub,2013-05-12 08:22:00,
2013-05-12 03:27:00,36.3,28.8,30.06,NW,308,3.0,13.0,74,0.00,,,0.00,meteohub,2013-05-12 08:27:00,
2013-05-12 03:32:00,36.3,28.6,30.06,NW,310,8.0,13.0,73,0.00,,,0.00,meteohub,2013-05-12 08:32:00,
2013-05-12 03:37:00,36.3,28.8,30.06,NW,315,2.0,11.0,74,0.00,,,0.00,meteohub,2013-05-12 08:37:00,
2013-05-12 03:42:00,36.3,28.8,30.06,WNW,300,2.0,11.0,74,0.00,,,0.00,meteohub,2013-05-12 08:42:00,
2013-05-12 03:47:00,36.3,28.6,30.06,NW,312,1.0,11.0,73,0.00,,,0.00,meteohub,2013-05-12 08:47:00,
2013-05-12 03:52:00,36.1,28.4,30.06,WNW,286,2.0,10.0,73,0.00,,,0.00,meteohub,2013-05-12 08:52:00,
2013-05-12 03:57:00,36.0,28.4,30.06,NNW,347,2.0,9.0,74,0.00,,,0.00,meteohub,2013-05-12 08:57:00,
2013-05-12 04:02:00,35.8,28.6,30.06,West,277,2.0,9.0,75,0.00,,,0.00,meteohub,2013-05-12 09:02:00,
2013-05-12 04:07:00,35.6,28.4,30.06,NW,326,5.0,9.0,75,0.00,,,0.00,meteohub,2013-05-12 09:07:00,
2013-05-12 04:12:00,35.4,28.2,30.06,NW,316,1.0,9.0,75,0.00,,,0.00,meteohub,2013-05-12 09:12:00,
2013-05-12 04:17:00,35.2,28.0,30.06,NW,306,4.0,9.0,75,0.00,,,0.00,meteohub,2013-05-12 09:17:00,
2013-05-12 04:22:00,35.2,28.0,30.06,WNW,286,3.0,13.0,75,0.00,,,0.00,meteohub,2013-05-12 09:22:00,
2013-05-12 04:27:00,35.2,28.0,30.06,NW,316,5.0,13.0,75,0.00,,,0.00,meteohub,2013-05-12 09:27:00,
2013-05-12 04:32:00,35.1,27.9,30.06,NNW,327,2.0,13.0,75,0.00,,,0.00,meteohub,2013-05-12 09:32:00,
2013-05-12 04:37:00,34.9,28.0,30.06,NW,317,3.0,9.0,76,0.00,,,0.00,meteohub,2013-05-12 09:37:00,
2013-05-12 04:42:00,34.5,28.0,30.07,NW,313,1.0,8.0,77,0.00,,,0.00,meteohub,2013-05-12 09:42:00,
2013-05-12 04:47:00,34.5,28.0,30.07,WNW,299,0.0,8.0,77,0.00,,,0.00,meteohub,2013-05-12 09:47:00,
2013-05-12 04:52:00,34.3,27.9,30.07,WNW,301,3.0,7.0,77,0.00,,,0.00,meteohub,2013-05-12 09:52:00,
2013-05-12 04:57:00,34.3,27.9,30.07,WNW,301,1.0,6.0,77,0.00,,,0.00,meteohub,2013-05-12 09:57:00,
2013-05-12 05:02:00,34.2,28.0,30.07,WNW,292,3.0,6.0,78,0.00,,,0.00,meteohub,2013-05-12 10:02:00,
2013-05-12 05:07:00,34.3,28.2,30.07,WNW,292,3.0,6.0,78,0.00,,,0.00,meteohub,2013-05-12 10:07:00,
2013-05-12 05:12:00,34.3,27.9,30.07,NW,307,1.0,11.0,77,0.00,,,0.00,meteohub,2013-05-12 10:12:00,
2013-05-12 05:17:00,34.3,27.9,30.07,NW,311,1.0,11.0,77,0.00,,,0.00,meteohub,2013-05-12 10:17:00,
2013-05-12 05:22:00,34.2,27.7,30.07,NW,307,1.0,11.0,77,0.00,,,0.00,meteohub,2013-05-12 10:22:00,
2013-05-12 05:27:00,34.0,27.5,30.07,NW,320,7.0,11.0,77,0.00,,,0.00,meteohub,2013-05-12 10:27:00,
2013-05-12 05:32:00,34.0,27.5,30.08,NW,311,0.0,11.0,77,0.00,,,0.00,meteohub,2013-05-12 10:32:00,
2013-05-12 05:37:00,34.0,27.5,30.08,NW,306,0.0,7.0,77,0.00,,,0.00,meteohub,2013-05-12 10:37:00,
2013-05-12 05:42:00,34.2,27.7,30.08,West,261,1.0,8.0,77,0.00,,,0.00,meteohub,2013-05-12 10:42:00,
2013-05-12 05:47:00,34.2,27.7,30.08,NW,305,1.0,8.0,77,0.00,,,0.00,meteohub,2013-05-12 10:47:00,
2013-05-12 05:52:00,34.2,27.7,30.08,NW,306,3.0,8.0,77,0.00,,,0.00,meteohub,2013-05-12 10:52:00,
2013-05-12 05:57:00,34.2,27.3,30.08,WNW,282,5.0,8.0,76,0.00,,,0.00,meteohub,2013-05-12 10:57:00,
2013-05-12 06:02:00,34.2,27.3,30.08,NW,314,3.0,9.0,76,0.00,,,0.00,meteohub,2013-05-12 11:02:00,
2013-05-12 06:07:00,34.3,27.5,30.08,NW,325,5.0,9.0,76,0.00,,,0.00,meteohub,2013-05-12 11:07:00,
2013-05-12 06:12:00,34.3,27.5,30.08,NW,313,5.0,11.0,76,0.00,,,0.00,meteohub,2013-05-12 11:12:00,
2013-05-12 06:17:00,34.3,27.9,30.08,NW,306,4.0,11.0,77,0.00,,,0.00,meteohub,2013-05-12 11:17:00,
2013-05-12 06:22:00,34.9,28.0,30.08,NW,314,4.0,10.0,76,0.00,,,0.00,meteohub,2013-05-12 11:22:00,
2013-05-12 06:27:00,35.2,28.4,30.08,NW,310,3.0,10.0,76,0.00,,,0.00,meteohub,2013-05-12 11:27:00,
2013-05-12 06:32:00,35.4,28.2,30.08,NW,315,4.0,8.0,75,0.00,,,0.00,meteohub,2013-05-12 11:32:00,
2013-05-12 06:37:00,35.8,28.4,30.08,NNW,344,3.0,11.0,74,0.00,,,0.00,meteohub,2013-05-12 11:37:00,
2013-05-12 06:42:00,36.0,28.4,30.09,NW,320,0.0,11.0,74,0.00,,,0.00,meteohub,2013-05-12 11:42:00,
2013-05-12 06:47:00,36.3,28.8,30.08,WNW,298,7.0,11.0,74,0.00,,,0.00,meteohub,2013-05-12 11:47:00,
2013-05-12 06:52:00,36.5,28.9,30.09,NW,322,4.0,10.0,74,0.00,,,0.00,meteohub,2013-05-12 11:52:00,
2013-05-12 06:57:00,36.7,28.8,30.09,NW,324,0.0,8.0,73,0.00,,,0.00,meteohub,2013-05-12 11:57:00,
2013-05-12 07:02:00,36.9,28.9,30.09,NW,314,5.0,9.0,73,0.00,,,0.00,meteohub,2013-05-12 12:02:00,
2013-05-12 07:07:00,37.0,28.9,30.09,WNW,289,4.0,10.0,72,0.00,,,0.00,meteohub,2013-05-12 12:07:00,
2013-05-12 07:12:00,37.2,29.3,30.09,NW,319,6.0,11.0,73,0.00,,,0.00,meteohub,2013-05-12 12:12:00,
2013-05-12 07:17:00,37.4,29.5,30.09,WNW,300,6.0,11.0,73,0.00,,,0.00,meteohub,2013-05-12 12:17:00,
2013-05-12 07:22:00,37.8,30.2,30.09,WNW,282,5.0,11.0,74,0.00,,,0.00,meteohub,2013-05-12 12:22:00,
2013-05-12 07:27:00,37.8,29.1,30.09,NW,313,3.0,11.0,71,0.00,,,0.00,meteohub,2013-05-12 12:27:00,
2013-05-12 07:32:00,37.9,29.3,30.09,NW,321,5.0,11.0,71,0.00,,,0.00,meteohub,2013-05-12 12:32:00,
2013-05-12 07:37:00,38.3,30.0,30.09,NW,313,8.0,11.0,72,0.00,,,0.00,meteohub,2013-05-12 12:37:00,
2013-05-12 07:42:00,38.5,29.8,30.09,NW,317,7.0,12.0,71,0.00,,,0.00,meteohub,2013-05-12 12:42:00,
2013-05-12 07:47:00,38.5,29.8,30.09,NW,318,11.0,12.0,71,0.00,,,0.00,meteohub,2013-05-12 12:47:00,
2013-05-12 07:52:00,38.7,30.0,30.09,NW,313,7.0,12.0,71,0.00,,,0.00,meteohub,2013-05-12 12:52:00,
2013-05-12 07:57:00,38.8,29.8,30.10,NW,318,3.0,12.0,70,0.00,,,0.00,meteohub,2013-05-12 12:57:00,
2013-05-12 08:02:00,38.8,30.2,30.10,NW,308,5.0,12.0,71,0.00,,,0.00,meteohub,2013-05-12 13:02:00,
2013-05-12 08:07:00,39.2,30.6,30.10,WNW,294,4.0,13.0,71,0.00,,,0.00,meteohub,2013-05-12 13:07:00,
2013-05-12 08:12:00,39.4,30.0,30.10,NW,315,2.0,13.0,69,0.00,,,0.00,meteohub,2013-05-12 13:12:00,
2013-05-12 08:17:00,39.4,30.4,30.11,NNW,327,8.0,11.0,70,0.00,,,0.00,meteohub,2013-05-12 13:17:00,
2013-05-12 08:22:00,39.7,30.4,30.11,NW,316,8.0,12.0,69,0.00,,,0.00,meteohub,2013-05-12 13:22:00,
2013-05-12 08:27:00,39.7,30.4,30.11,NW,323,8.0,14.0,69,0.00,,,0.00,meteohub,2013-05-12 13:27:00,
2013-05-12 08:32:00,39.6,30.2,30.11,NW,317,1.0,14.0,69,0.00,,,0.00,meteohub,2013-05-12 13:32:00,
2013-05-12 08:37:00,39.2,29.5,30.11,NW,313,4.0,12.0,68,0.00,,,0.00,meteohub,2013-05-12 13:37:00,
2013-05-12 08:42:00,39.0,30.0,30.11,WNW,286,3.0,11.0,70,0.00,,,0.00,meteohub,2013-05-12 13:42:00,
2013-05-12 08:47:00,39.0,30.0,30.11,SSW,200,6.0,11.0,70,0.00,,,0.00,meteohub,2013-05-12 13:47:00,
2013-05-12 08:52:00,39.0,29.7,30.12,NW,317,4.0,11.0,69,0.00,,,0.00,meteohub,2013-05-12 13:52:00,
2013-05-12 08:57:00,39.0,29.7,30.12,WSW,246,5.0,11.0,69,0.00,,,0.00,meteohub,2013-05-12 13:57:00,
2013-05-12 09:02:00,38.8,30.2,30.12,NW,305,2.0,11.0,71,0.00,,,0.00,meteohub,2013-05-12 14:02:00,
2013-05-12 09:07:00,39.9,32.0,30.12,NW,321,3.0,13.0,73,0.00,,,0.00,meteohub,2013-05-12 14:07:00,
2013-05-12 09:12:00,40.5,31.5,30.12,NW,325,8.0,13.0,70,0.00,,,0.00,meteohub,2013-05-12 14:12:00,
2013-05-12 09:17:00,39.7,29.7,30.11,West,270,3.0,13.0,67,0.00,,,0.00,meteohub,2013-05-12 14:17:00,
2013-05-12 09:22:00,39.4,30.0,30.12,NW,319,6.0,11.0,69,0.00,,,0.00,meteohub,2013-05-12 14:22:00,
2013-05-12 09:27:00,39.4,30.0,30.12,NNW,331,8.0,11.0,69,0.00,,,0.00,meteohub,2013-05-12 14:27:00,
2013-05-12 09:32:00,39.9,30.2,30.12,NNW,331,2.0,12.0,68,0.00,,,0.00,meteohub,2013-05-12 14:32:00,
2013-05-12 09:37:00,41.2,31.1,30.12,NW,321,5.0,12.0,67,0.00,,,0.00,meteohub,2013-05-12 14:37:00,
2013-05-12 09:42:00,40.6,29.8,30.12,NW,321,6.0,12.0,65,0.00,,,0.00,meteohub,2013-05-12 14:42:00,
2013-05-12 09:47:00,40.3,29.8,30.11,NNW,327,6.0,12.0,66,0.00,,,0.00,meteohub,2013-05-12 14:47:00,
2013-05-12 09:52:00,40.1,29.7,30.12,West,274,0.0,12.0,66,0.00,,,0.00,meteohub,2013-05-12 14:52:00,
2013-05-12 09:57:00,40.8,30.7,30.12,NW,322,6.0,13.0,67,0.00,,,0.00,meteohub,2013-05-12 14:57:00,
2013-05-12 10:02:00,41.7,31.3,30.11,West,271,4.0,19.0,66,0.00,,,0.00,meteohub,2013-05-12 15:02:00,
2013-05-12 10:07:00,42.6,31.6,30.12,NNW,337,8.0,19.0,65,0.00,,,0.00,meteohub,2013-05-12 15:07:00,
2013-05-12 10:12:00,42.6,31.3,30.12,NW,307,4.0,19.0,64,0.00,,,0.00,meteohub,2013-05-12 15:12:00,
2013-05-12 10:17:00,42.3,30.6,30.12,NNW,327,6.0,15.0,63,0.00,,,0.00,meteohub,2013-05-12 15:17:00,
2013-05-12 10:22:00,42.1,30.4,30.12,NW,305,7.0,15.0,63,0.00,,,0.00,meteohub,2013-05-12 15:22:00,
2013-05-12 10:27:00,41.5,30.7,30.12,West,270,5.0,15.0,65,0.00,,,0.00,meteohub,2013-05-12 15:27:00,
2013-05-12 10:32:00,41.4,29.7,30.12,NNW,333,6.0,15.0,63,0.00,,,0.00,meteohub,2013-05-12 15:32:00,
2013-05-12 10:37:00,42.1,31.5,30.12,NW,320,1.0,15.0,66,0.00,,,0.00,meteohub,2013-05-12 15:37:00,
2013-05-12 10:42:00,42.6,31.3,30.12,NNW,344,13.0,13.0,64,0.00,,,0.00,meteohub,2013-05-12 15:42:00,
2013-05-12 10:47:00,42.4,31.5,30.12,West,265,9.0,13.0,65,0.00,,,0.00,meteohub,2013-05-12 15:47:00,
2013-05-12 10:52:00,41.9,30.6,30.13,NNW,330,7.0,13.0,64,0.00,,,0.00,meteohub,2013-05-12 15:52:00,
2013-05-12 10:57:00,42.8,31.5,30.13,NW,320,5.0,14.0,64,0.00,,,0.00,meteohub,2013-05-12 15:57:00,
2013-05-12 11:02:00,43.3,31.3,30.12,WNW,303,15.0,15.0,62,0.00,,,0.00,meteohub,2013-05-12 16:02:00,
2013-05-12 11:07:00,43.0,31.3,30.12,NW,322,9.0,15.0,63,0.00,,,0.00,meteohub,2013-05-12 16:07:00,
2013-05-12 11:12:00,43.3,31.3,30.12,NW,319,4.0,17.0,62,0.00,,,0.00,meteohub,2013-05-12 16:12:00,
2013-05-12 11:17:00,43.3,31.6,30.12,NNW,330,7.0,18.0,63,0.00,,,0.00,meteohub,2013-05-12 16:17:00,
2013-05-12 11:22:00,43.5,30.6,30.12,NW,309,8.0,18.0,60,0.00,,,0.00,meteohub,2013-05-12 16:22:00,
2013-05-12 11:27:00,43.2,30.6,30.13,NNW,327,12.0,18.0,61,0.00,,,0.00,meteohub,2013-05-12 16:27:00,
2013-05-12 11:32:00,43.7,32.0,30.12,NNW,341,16.0,16.0,63,0.00,,,0.00,meteohub,2013-05-12 16:32:00,
2013-05-12 11:37:00,44.2,32.9,30.12,NW,312,2.0,17.0,64,0.00,,,0.00,meteohub,2013-05-12 16:37:00,
2013-05-12 11:42:00,44.2,31.3,30.13,WNW,285,3.0,17.0,60,0.00,,,0.00,meteohub,2013-05-12 16:42:00,
2013-05-12 11:47:00,44.4,33.4,30.12,NNW,330,6.0,17.0,65,0.00,,,0.00,meteohub,2013-05-12 16:47:00,
2013-05-12 11:52:00,44.8,31.3,30.12,NNW,332,9.0,15.0,59,0.00,,,0.00,meteohub,2013-05-12 16:52:00,
2013-05-12 11:57:00,44.6,32.7,30.12,NNW,338,7.0,15.0,63,0.00,,,0.00,meteohub,2013-05-12 16:57:00,
2013-05-12 12:02:00,44.6,32.4,30.12,West,265,2.0,15.0,62,0.00,,,0.00,meteohub,2013-05-12 17:02:00,
2013-05-12 12:07:00,44.2,31.6,30.12,NNW,328,9.0,15.0,61,0.00,,,0.00,meteohub,2013-05-12 17:07:00,
2013-05-12 12:12:00,44.8,33.3,30.12,NW,324,13.0,16.0,64,0.00,,,0.00,meteohub,2013-05-12 17:12:00,
2013-05-12 12:17:00,45.1,31.3,30.12,NW,313,8.0,16.0,58,0.00,,,0.00,meteohub,2013-05-12 17:17:00,
2013-05-12 12:22:00,45.5,32.9,30.12,NW,317,10.0,16.0,61,0.00,,,0.00,meteohub,2013-05-12 17:22:00,
2013-05-12 12:27:00,46.0,33.8,30.12,West,277,4.0,15.0,62,0.00,,,0.00,meteohub,2013-05-12 17:27:00,
2013-05-12 12:32:00,46.0,32.0,30.12,WNW,282,6.0,15.0,58,0.00,,,0.00,meteohub,2013-05-12 17:32:00,
2013-05-12 12:37:00,45.7,31.3,30.12,NNW,338,8.0,15.0,57,0.00,,,0.00,meteohub,2013-05-12 17:37:00,
2013-05-12 12:42:00,46.4,34.2,30.12,SW,219,5.0,20.0,62,0.00,,,0.00,meteohub,2013-05-12 17:42:00,
2013-05-12 12:47:00,46.2,30.0,30.12,West,280,5.0,20.0,53,0.00,,,0.00,meteohub,2013-05-12 17:47:00,
2013-05-12 12:52:00,46.2,31.5,30.12,NW,325,5.0,20.0,56,0.00,,,0.00,meteohub,2013-05-12 17:52:00,
2013-05-12 12:57:00,46.8,32.4,30.12,NW,319,9.0,14.0,57,0.00,,,0.00,meteohub,2013-05-12 17:57:00,
2013-05-12 13:02:00,46.4,30.2,30.12,NW,304,9.0,14.0,53,0.00,,,0.00,meteohub,2013-05-12 18:02:00,
2013-05-12 13:07:00,45.7,30.9,30.12,NW,317,3.0,14.0,56,0.00,,,0.00,meteohub,2013-05-12 18:07:00,
2013-05-12 13:12:00,45.7,31.3,30.12,NW,325,10.0,14.0,57,0.00,,,0.00,meteohub,2013-05-12 18:12:00,
2013-05-12 13:17:00,46.2,30.9,30.12,WSW,238,5.0,14.0,55,0.00,,,0.00,meteohub,2013-05-12 18:17:00,
2013-05-12 13:22:00,46.9,33.4,30.12,WNW,284,2.0,13.0,59,0.00,,,0.00,meteohub,2013-05-12 18:22:00,
2013-05-12 13:27:00,47.8,33.8,30.12,NW,324,3.0,13.0,58,0.00,,,0.00,meteohub,2013-05-12 18:27:00,
2013-05-12 13:32:00,47.8,30.6,30.11,NW,323,7.0,12.0,51,0.00,,,0.00,meteohub,2013-05-12 18:32:00,
2013-05-12 13:37:00,48.2,33.6,30.11,West,267,9.0,12.0,57,0.00,,,0.00,meteohub,2013-05-12 18:37:00,
2013-05-12 13:42:00,47.7,29.5,30.11,West,265,8.0,16.0,49,0.00,,,0.00,meteohub,2013-05-12 18:42:00,
2013-05-12 13:47:00,48.2,30.9,30.11,WNW,299,2.0,16.0,51,0.00,,,0.00,meteohub,2013-05-12 18:47:00,
2013-05-12 13:52:00,48.2,31.8,30.11,WSW,239,2.0,17.0,53,0.00,,,0.00,meteohub,2013-05-12 18:52:00,
2013-05-12 13:58:00,47.8,29.7,30.11,West,268,6.0,17.0,49,0.00,,,0.00,meteohub,2013-05-12 18:58:00,
2013-05-12 14:03:00,48.0,30.2,30.10,NW,321,8.0,12.0,50,0.00,,,0.00,meteohub,2013-05-12 19:03:00,
2013-05-12 14:08:00,47.5,29.8,30.10,NW,319,0.0,16.0,50,0.00,,,0.00,meteohub,2013-05-12 19:08:00,
2013-05-12 14:13:00,47.8,32.0,30.10,NW,320,5.0,16.0,54,0.00,,,0.00,meteohub,2013-05-12 19:13:00,
2013-05-12 14:18:00,48.9,31.1,30.10,NW,322,13.0,16.0,50,0.00,,,0.00,meteohub,2013-05-12 19:18:00,
2013-05-12 14:24:00,48.7,29.8,30.10,West,269,11.0,15.0,48,0.00,,,0.00,meteohub,2013-05-12 19:24:00,
2013-05-12 14:29:00,48.7,29.8,30.10,WSW,242,4.0,16.0,48,0.00,,,0.00,meteohub,2013-05-12 19:29:00,
2013-05-12 14:34:00,48.7,29.8,30.09,West,271,0.0,16.0,48,0.00,,,0.00,meteohub,2013-05-12 19:34:00,
2013-05-12 14:39:00,48.9,29.7,30.09,WSW,244,16.0,16.0,47,0.00,,,0.00,meteohub,2013-05-12 19:39:00,
2013-05-12 14:44:00,48.4,29.1,30.09,WSW,246,4.0,16.0,47,0.00,,,0.00,meteohub,2013-05-12 19:44:00,
2013-05-12 14:49:00,48.7,30.4,30.09,West,273,3.0,16.0,49,0.00,,,0.00,meteohub,2013-05-12 19:49:00,
2013-05-12 14:55:00,49.8,30.4,30.10,West,270,5.0,16.0,47,0.00,,,0.00,meteohub,2013-05-12 19:55:00,
2013-05-12 15:00:00,49.3,27.7,30.09,West,265,3.0,14.0,43,0.00,,,0.00,meteohub,2013-05-12 20:00:00,
2013-05-12 15:05:00,49.5,30.6,30.09,West,265,12.0,16.0,48,0.00,,,0.00,meteohub,2013-05-12 20:05:00,
2013-05-12 15:10:00,49.6,31.3,30.09,West,259,12.0,18.0,49,0.00,,,0.00,meteohub,2013-05-12 20:10:00,
2013-05-12 15:15:00,50.0,29.5,30.09,NW,313,5.0,18.0,45,0.00,,,0.00,meteohub,2013-05-12 20:15:00,
2013-05-12 15:21:00,50.2,29.7,30.09,WNW,283,6.0,18.0,45,0.00,,,0.00,meteohub,2013-05-12 20:21:00,
2013-05-12 15:26:00,50.4,29.3,30.09,West,269,3.0,17.0,44,0.00,,,0.00,meteohub,2013-05-12 20:26:00,
2013-05-12 15:31:00,50.0,31.1,30.09,WSW,245,6.0,17.0,48,0.00,,,0.00,meteohub,2013-05-12 20:31:00,
2013-05-12 15:36:00,50.2,31.3,30.09,NW,320,0.0,11.0,48,0.00,,,0.00,meteohub,2013-05-12 20:36:00,
2013-05-12 15:41:00,50.2,31.8,30.09,NW,319,6.0,10.0,49,0.00,,,0.00,meteohub,2013-05-12 20:41:00,
2013-05-12 15:47:00,51.1,33.1,30.09,NNW,329,8.0,10.0,50,0.00,,,0.00,meteohub,2013-05-12 20:47:00,
2013-05-12 15:52:00,51.3,29.5,30.08,West,269,15.0,15.0,43,0.00,,,0.00,meteohub,2013-05-12 20:52:00,
2013-05-12 15:57:00,50.4,30.9,30.08,NW,321,3.0,17.0,47,0.00,,,0.00,meteohub,2013-05-12 20:57:00,
2013-05-12 16:02:00,50.5,31.6,30.08,WSW,252,4.0,17.0,48,0.00,,,0.00,meteohub,2013-05-12 21:02:00,
2013-05-12 16:07:00,51.1,29.8,30.08,West,259,5.0,17.0,44,0.00,,,0.00,meteohub,2013-05-12 21:07:00,
2013-05-12 16:12:00,51.3,30.0,30.08,West,269,3.0,16.0,44,0.00,,,0.00,meteohub,2013-05-12 21:12:00,
2013-05-12 16:17:00,51.3,30.0,30.08,West,259,3.0,16.0,44,0.00,,,0.00,meteohub,2013-05-12 21:17:00,
2013-05-12 16:22:00,50.5,31.1,30.08,WNW,292,6.0,11.0,47,0.00,,,0.00,meteohub,2013-05-12 21:22:00,
2013-05-12 16:27:00,51.4,33.4,30.08,West,274,6.0,9.0,50,0.00,,,0.00,meteohub,2013-05-12 21:27:00,
2013-05-12 16:32:00,51.4,28.6,30.08,West,271,10.0,11.0,41,0.00,,,0.00,meteohub,2013-05-12 21:32:00,
2013-05-12 16:37:00,50.2,26.8,30.08,West,265,5.0,14.0,40,0.00,,,0.00,meteohub,2013-05-12 21:37:00,
2013-05-12 16:42:00,51.3,31.6,30.08,NW,321,8.0,14.0,47,0.00,,,0.00,meteohub,2013-05-12 21:42:00,
2013-05-12 16:47:00,51.4,29.7,30.08,NW,319,6.0,14.0,43,0.00,,,0.00,meteohub,2013-05-12 21:47:00,
2013-05-12 16:52:00,50.9,29.1,30.08,West,273,7.0,14.0,43,0.00,,,0.00,meteohub,2013-05-12 21:52:00,
2013-05-12 16:57:00,51.3,29.5,30.08,WSW,240,4.0,12.0,43,0.00,,,0.00,meteohub,2013-05-12 21:57:00,
2013-05-12 17:02:00,51.3,28.4,30.08,West,277,10.0,12.0,41,0.00,,,0.00,meteohub,2013-05-12 22:02:00,
2013-05-12 17:07:00,50.5,28.2,30.08,West,267,2.0,13.0,42,0.00,,,0.00,meteohub,2013-05-12 22:07:00,
2013-05-12 17:12:00,51.4,31.8,30.08,NW,309,5.0,13.0,47,0.00,,,0.00,meteohub,2013-05-12 22:12:00,
2013-05-12 17:17:00,51.6,31.5,30.08,NNW,328,8.0,13.0,46,0.00,,,0.00,meteohub,2013-05-12 22:17:00,
2013-05-12 17:22:00,52.0,31.3,30.08,NW,317,7.0,12.0,45,0.00,,,0.00,meteohub,2013-05-12 22:22:00,
2013-05-12 17:27:00,52.0,30.7,30.08,NNW,330,7.0,12.0,44,0.00,,,0.00,meteohub,2013-05-12 22:27:00,
2013-05-12 17:32:00,52.0,31.3,30.08,NNW,329,3.0,12.0,45,0.00,,,0.00,meteohub,2013-05-12 22:32:00,
2013-05-12 17:37:00,52.3,29.3,30.08,NNW,331,4.0,12.0,41,0.00,,,0.00,meteohub,2013-05-12 22:37:00,
2013-05-12 17:42:00,52.0,28.9,30.08,NW,319,6.0,13.0,41,0.00,,,0.00,meteohub,2013-05-12 22:42:00,
2013-05-12 17:47:00,52.2,31.5,30.08,NW,317,5.0,13.0,45,0.00,,,0.00,meteohub,2013-05-12 22:47:00,
2013-05-12 17:52:00,52.2,29.8,30.08,NW,314,4.0,13.0,42,0.00,,,0.00,meteohub,2013-05-12 22:52:00,
2013-05-12 17:57:00,51.6,30.4,30.08,West,277,6.0,11.0,44,0.00,,,0.00,meteohub,2013-05-12 22:57:00,
2013-05-12 18:02:00,50.9,29.1,30.08,NW,321,7.0,11.0,43,0.00,,,0.00,meteohub,2013-05-12 23:02:00,
2013-05-12 18:07:00,51.1,30.6,30.08,NW,321,5.0,11.0,45,0.00,,,0.00,meteohub,2013-05-12 23:07:00,
2013-05-12 18:12:00,51.4,29.7,30.08,NW,317,5.0,11.0,43,0.00,,,0.00,meteohub,2013-05-12 23:12:00,
2013-05-12 18:17:00,51.1,29.8,30.07,NNW,330,8.0,15.0,44,0.00,,,0.00,meteohub,2013-05-12 23:17:00,
2013-05-12 18:22:00,51.1,29.8,30.08,NNW,335,11.0,15.0,44,0.00,,,0.00,meteohub,2013-05-12 23:22:00,
2013-05-12 18:27:00,50.7,29.7,30.08,NW,311,6.0,15.0,44,0.00,,,0.00,meteohub,2013-05-12 23:27:00,
2013-05-12 18:32:00,50.7,29.1,30.08,NNW,345,4.0,15.0,43,0.00,,,0.00,meteohub,2013-05-12 23:32:00,
2013-05-12 18:37:00,50.9,29.8,30.07,North,355,4.0,14.0,44,0.00,,,0.00,meteohub,2013-05-12 23:37:00,
2013-05-12 18:42:00,51.3,29.5,30.07,WSW,244,3.0,14.0,43,0.00,,,0.00,meteohub,2013-05-12 23:42:00,
2013-05-12 18:47:00,51.3,29.5,30.07,NW,319,6.0,14.0,43,0.00,,,0.00,meteohub,2013-05-12 23:47:00,
2013-05-12 18:52:00,51.1,29.3,30.07,NW,323,3.0,11.0,43,0.00,,,0.00,meteohub,2013-05-12 23:52:00,
2013-05-12 18:57:00,50.7,29.1,30.07,West,273,3.0,9.0,43,0.00,,,0.00,meteohub,2013-05-12 23:57:00,
2013-05-12 19:02:00,50.5,27.7,30.07,NW,321,5.0,9.0,41,0.00,,,0.00,meteohub,2013-05-13 00:02:00,
2013-05-12 19:07:00,50.4,28.8,30.07,NW,324,3.0,13.0,43,0.00,,,0.00,meteohub,2013-05-13 00:07:00,
2013-05-12 19:12:00,50.0,27.9,30.07,NNW,327,4.0,13.0,42,0.00,,,0.00,meteohub,2013-05-13 00:12:00,
2013-05-12 19:18:00,49.6,28.6,30.08,NW,321,1.0,11.0,44,0.00,,,0.00,meteohub,2013-05-13 00:18:00,
2013-05-12 19:23:00,49.5,27.3,30.08,WNW,289,2.0,10.0,42,0.00,,,0.00,meteohub,2013-05-13 00:23:00,
2013-05-12 19:28:00,49.3,26.6,30.08,NW,319,8.0,8.0,41,0.00,,,0.00,meteohub,2013-05-13 00:28:00,
2013-05-12 19:33:00,48.9,26.8,30.08,NW,304,5.0,9.0,42,0.00,,,0.00,meteohub,2013-05-13 00:33:00,
2013-05-12 19:38:00,48.7,27.9,30.08,NW,323,4.0,9.0,44,0.00,,,0.00,meteohub,2013-05-13 00:38:00,
2013-05-12 19:43:00,48.6,27.7,30.08,NW,321,4.0,9.0,44,0.00,,,0.00,meteohub,2013-05-13 00:43:00,
2013-05-12 19:49:00,48.2,27.9,30.08,NNW,332,7.0,8.0,45,0.00,,,0.00,meteohub,2013-05-13 00:49:00,
2013-05-12 19:54:00,48.0,27.1,30.08,NW,317,5.0,8.0,44,0.00,,,0.00,meteohub,2013-05-13 00:54:00,
2013-05-12 19:59:00,48.0,26.6,30.08,NW,318,3.0,8.0,43,0.00,,,0.00,meteohub,2013-05-13 00:59:00,
2013-05-12 20:04:00,47.8,27.0,30.08,NW,317,6.0,9.0,44,0.00,,,0.00,meteohub,2013-05-13 01:04:00,
2013-05-12 20:09:00,47.3,27.5,30.08,NW,317,2.0,9.0,46,0.00,,,0.00,meteohub,2013-05-13 01:09:00,
2013-05-12 20:15:00,46.9,27.7,30.08,NW,317,1.0,9.0,47,0.00,,,0.00,meteohub,2013-05-13 01:15:00,
2013-05-12 20:20:00,46.4,28.2,30.08,NW,317,3.0,6.0,49,0.00,,,0.00,meteohub,2013-05-13 01:20:00,
2013-05-12 20:25:00,45.9,28.8,30.08,NW,317,1.0,6.0,51,0.00,,,0.00,meteohub,2013-05-13 01:25:00,
2013-05-12 20:30:00,45.3,28.2,30.09,NW,317,0.0,4.0,51,0.00,,,0.00,meteohub,2013-05-13 01:30:00,
2013-05-12 20:35:00,45.1,28.6,30.09,NW,317,3.0,3.0,52,0.00,,,0.00,meteohub,2013-05-13 01:35:00,
2013-05-12 20:40:00,44.8,28.8,30.09,NW,317,0.0,4.0,53,0.00,,,0.00,meteohub,2013-05-13 01:40:00,
2013-05-12 20:46:00,44.6,28.0,30.09,NW,317,0.0,4.0,52,0.00,,,0.00,meteohub,2013-05-13 01:46:00,
2013-05-12 20:51:00,44.4,28.4,30.09,NW,317,0.0,4.0,53,0.00,,,0.00,meteohub,2013-05-13 01:51:00,
2013-05-12 20:56:00,44.2,28.2,30.09,NW,317,0.0,1.0,53,0.00,,,0.00,meteohub,2013-05-13 01:56:00,
2013-05-12 21:01:00,44.4,28.8,30.09,NW,317,0.0,1.0,54,0.00,,,0.00,meteohub,2013-05-13 02:01:00,
2013-05-12 21:06:00,44.8,28.2,30.09,NW,317,0.0,2.0,52,0.00,,,0.00,meteohub,2013-05-13 02:06:00,
2013-05-12 21:12:00,45.0,28.9,30.09,NW,317,0.0,2.0,53,0.00,,,0.00,meteohub,2013-05-13 02:12:00,
2013-05-12 21:17:00,45.0,28.9,30.09,NW,317,0.0,2.0,53,0.00,,,0.00,meteohub,2013-05-13 02:17:00,
2013-05-12 21:22:00,45.0,28.9,30.09,NW,317,0.0,2.0,53,0.00,,,0.00,meteohub,2013-05-13 02:22:00,
2013-05-12 21:27:00,45.0,28.9,30.09,NW,317,0.0,2.0,53,0.00,,,0.00,meteohub,2013-05-13 02:27:00,
2013-05-12 21:32:00,45.0,28.9,30.10,NW,317,0.0,1.0,53,0.00,,,0.00,meteohub,2013-05-13 02:32:00,
2013-05-12 21:37:00,45.0,29.3,30.10,NW,317,0.0,2.0,54,0.00,,,0.00,meteohub,2013-05-13 02:37:00,
2013-05-12 21:42:00,44.8,30.9,30.10,NW,318,4.0,4.0,58,0.00,,,0.00,meteohub,2013-05-13 02:42:00,
2013-05-12 21:47:00,44.1,31.8,30.10,NW,318,1.0,5.0,62,0.00,,,0.00,meteohub,2013-05-13 02:47:00,
2013-05-12 21:52:00,44.1,30.7,30.10,NNW,329,5.0,5.0,59,0.00,,,0.00,meteohub,2013-05-13 02:52:00,
2013-05-12 21:57:00,44.2,30.7,30.11,NNW,346,5.0,7.0,59,0.00,,,0.00,meteohub,2013-05-13 02:57:00,
2013-05-12 22:02:00,43.9,33.3,30.11,NE,38,7.0,15.0,66,0.00,,,0.00,meteohub,2013-05-13 03:02:00,
2013-05-12 22:07:00,42.4,33.6,30.12,NE,49,10.0,15.0,71,0.00,,,0.00,meteohub,2013-05-13 03:07:00,
2013-05-12 22:12:00,41.2,33.8,30.12,ENE,72,10.0,15.0,75,0.00,,,0.00,meteohub,2013-05-13 03:12:00,
2013-05-12 22:17:00,40.5,33.1,30.12,East,84,10.0,13.0,75,0.00,,,0.00,meteohub,2013-05-13 03:17:00,
2013-05-12 22:22:00,39.7,33.1,30.13,ENE,78,11.0,14.0,77,0.00,,,0.00,meteohub,2013-05-13 03:22:00,
2013-05-12 22:27:00,39.0,33.1,30.13,ENE,65,7.0,14.0,79,0.00,,,0.00,meteohub,2013-05-13 03:27:00,
2013-05-12 22:32:00,38.7,33.1,30.13,ENE,71,5.0,14.0,80,0.00,,,0.00,meteohub,2013-05-13 03:32:00,
2013-05-12 22:37:00,38.1,33.1,30.13,ENE,58,7.0,13.0,82,0.00,,,0.00,meteohub,2013-05-13 03:37:00,
2013-05-12 22:42:00,37.6,32.9,30.13,ENE,62,9.0,11.0,83,0.00,,,0.00,meteohub,2013-05-13 03:42:00,
2013-05-12 22:47:00,37.4,33.1,30.13,NE,51,7.0,11.0,84,0.00,,,0.00,meteohub,2013-05-13 03:47:00,
2013-05-12 22:52:00,37.0,32.7,30.14,NE,53,6.0,11.0,84,0.00,,,0.00,meteohub,2013-05-13 03:52:00,
2013-05-12 22:57:00,36.9,32.7,30.14,NE,56,6.0,12.0,85,0.00,,,0.00,meteohub,2013-05-13 03:57:00,
2013-05-12 23:01:00,36.7,32.5,30.14,ENE,59,4.0,12.0,85,0.00,,,0.00,meteohub,2013-05-13 04:01:00,
2013-05-12 23:02:00,36.7,32.5,30.14,NE,53,7.0,12.0,85,0.00,,,0.00,meteohub,2013-05-13 04:02:00,
2013-05-12 23:03:00,36.7,32.5,30.14,ENE,67,8.0,12.0,85,0.00,,,0.00,meteohub,2013-05-13 04:03:00,
2013-05-12 23:04:00,36.7,32.5,30.14,ENE,71,4.0,12.0,85,0.00,,,0.00,meteohub,2013-05-13 04:04:00,
2013-05-12 23:05:00,36.7,32.5,30.14,ENE,63,4.0,12.0,85,0.00,,,0.00,meteohub,2013-05-13 04:05:00,
2013-05-12 23:11:00,36.5,32.4,30.14,ENE,65,7.0,11.0,85,0.00,,,0.00,meteohub,2013-05-13 04:11:00,
2013-05-12 23:16:00,36.1,32.4,30.14,ENE,57,7.0,11.0,86,0.00,,,0.00,meteohub,2013-05-13 04:16:00,
2013-05-12 23:21:00,36.0,31.8,30.14,ENE,72,3.0,11.0,85,0.00,,,0.00,meteohub,2013-05-13 04:21:00,
2013-05-12 23:26:00,35.8,32.0,30.14,ENE,72,3.0,9.0,86,0.00,,,0.00,meteohub,2013-05-13 04:26:00,
2013-05-12 23:31:00,35.6,31.8,30.14,ENE,74,2.0,8.0,86,0.00,,,0.00,meteohub,2013-05-13 04:31:00,
2013-05-12 23:37:00,35.4,31.6,30.14,ENE,74,1.0,5.0,86,0.00,,,0.00,meteohub,2013-05-13 04:37:00,
2013-05-12 23:42:00,35.2,31.5,30.15,ENE,74,2.0,5.0,86,0.00,,,0.00,meteohub,2013-05-13 04:42:00,
2013-05-12 23:47:00,34.9,31.1,30.15,ENE,74,3.0,5.0,86,0.00,,,0.00,meteohub,2013-05-13 04:47:00,
2013-05-12 23:52:00,34.9,31.5,30.15,ENE,74,1.0,5.0,87,0.00,,,0.00,meteohub,2013-05-13 04:52:00,
2013-05-12 23:57:00,34.9,31.5,30.15,ENE,74,2.0,5.0,87,0.00,,,0.00,meteohub,2013-05-13 04:57:00,